When you browse on this site, cookies collect data to enhance your experience and personalize the content and advertising you see.
Visit our Privacy Policy to learn more. By continuing to use the site, you agree to this use of cookies and data.
  • In Hungary
  • List of Countries
  • For 7 days
  • Water Temperature
  • Weather Map
  • News
  • Weather Widgets
  • user-avatar
    Login

    Hourly Weather Idlib

    Today, 15 November, Friday

    Time Temperature Precipitation Wind Pressure Humidity
    00:00 +18°C° 0.5 mm 2 mps 725 mmHg 67%
    01:00 +17°C° 0.5 mm 2 mps 724 mmHg 68%
    02:00 +17°C° 0.5 mm 3 mps 724 mmHg 69%
    03:00 +17°C° 0 mm 3 mps 724 mmHg 65%
    04:00 +17°C° 0 mm 3 mps 724 mmHg 62%
    05:00 +16°C° 0 mm 3 mps 724 mmHg 58%
    06:00 +17°C° 0 mm 3 mps 725 mmHg 52%
    07:00 +18°C° 0 mm 3 mps 725 mmHg 46%
    08:00 +18°C° 0 mm 3 mps 725 mmHg 40%
    09:00 +20°C° 0.1 mm 4 mps 726 mmHg 39%
    10:00 +22°C° 0.1 mm 4 mps 726 mmHg 37%
    11:00 +23°C° 0.1 mm 5 mps 726 mmHg 35%
    12:00 +25°C° 0.2 mm 5 mps 725 mmHg 35%
    13:00 +25°C° 0.2 mm 5 mps 725 mmHg 35%
    14:00 +26°C° 0.2 mm 5 mps 725 mmHg 36%
    15:00 +23°C° 0.3 mm 4 mps 725 mmHg 37%
    16:00 +22°C° 0.3 mm 4 mps 725 mmHg 39%
    17:00 +21°C° 0.3 mm 4 mps 724 mmHg 41%
    18:00 +20°C° 0.2 mm 3 mps 724 mmHg 40%
    19:00 +20°C° 0.2 mm 3 mps 725 mmHg 39%
    20:00 +19°C° 0.2 mm 2 mps 725 mmHg 39%
    21:00 +18°C° 0 mm 2 mps 725 mmHg 40%
    22:00 +19°C° 0 mm 1 mps 725 mmHg 42%
    23:00 +19°C° 0 mm 1 mps 724 mmHg 43%

    Tomorrow, 16 November, Saturday

    Time Temperature Precipitation Wind Pressure Humidity
    00:00 +18°C° 0 mm 1 mps 724 mmHg 43%
    01:00 +18°C° 0 mm 1 mps 724 mmHg 43%
    02:00 +18°C° 0 mm 1 mps 724 mmHg 43%
    03:00 +16°C° 0 mm 1 mps 724 mmHg 44%
    04:00 +16°C° 0 mm 1 mps 724 mmHg 45%
    05:00 +15°C° 0 mm 1 mps 724 mmHg 46%
    06:00 +16°C° 0 mm 1 mps 724 mmHg 43%
    07:00 +18°C° 0 mm 1 mps 725 mmHg 41%
    08:00 +19°C° 0 mm 1 mps 725 mmHg 39%
    09:00 +20°C° 0 mm 1 mps 725 mmHg 36%
    10:00 +22°C° 0 mm 1 mps 725 mmHg 34%
    11:00 +23°C° 0 mm 2 mps 725 mmHg 32%
    12:00 +23°C° 0 mm 2 mps 725 mmHg 31%
    13:00 +24°C° 0 mm 2 mps 724 mmHg 30%
    14:00 +25°C° 0 mm 3 mps 724 mmHg 29%
    15:00 +23°C° 0 mm 2 mps 724 mmHg 32%
    16:00 +21°C° 0 mm 2 mps 724 mmHg 34%
    17:00 +20°C° 0 mm 2 mps 724 mmHg 36%
    18:00 +19°C° 0 mm 2 mps 724 mmHg 37%
    19:00 +19°C° 0 mm 2 mps 724 mmHg 38%
    20:00 +18°C° 0 mm 2 mps 725 mmHg 39%
    21:00 +18°C° 0 mm 2 mps 725 mmHg 40%
    22:00 +18°C° 0 mm 1 mps 725 mmHg 41%
    23:00 +18°C° 0 mm 1 mps 725 mmHg 43%

    Day after tomorrow, 17 November, Sunday

    Time Temperature Precipitation Wind Pressure Humidity
    00:00 +16°C° 0 mm 1 mps 725 mmHg 44%
    01:00 +16°C° 0 mm 1 mps 725 mmHg 45%
    02:00 +16°C° 0 mm 1 mps 725 mmHg 47%
    03:00 +15°C° 0 mm 1 mps 726 mmHg 47%
    04:00 +15°C° 0 mm 2 mps 726 mmHg 48%
    05:00 +15°C° 0 mm 2 mps 726 mmHg 49%
    06:00 +15°C° 0 mm 2 mps 727 mmHg 44%
    07:00 +14°C° 0 mm 3 mps 727 mmHg 39%
    08:00 +16°C° 0 mm 3 mps 728 mmHg 34%
    09:00 +17°C° 0 mm 4 mps 728 mmHg 28%
    10:00 +19°C° 0 mm 4 mps 728 mmHg 23%
    11:00 +20°C° 0 mm 4 mps 728 mmHg 17%
    12:00 +21°C° 0 mm 4 mps 728 mmHg 16%
    13:00 +21°C° 0 mm 5 mps 727 mmHg 15%
    14:00 +21°C° 0 mm 5 mps 727 mmHg 14%
    15:00 +20°C° 0 mm 5 mps 727 mmHg 16%
    16:00 +18°C° 0 mm 4 mps 727 mmHg 18%
    17:00 +17°C° 0 mm 4 mps 727 mmHg 20%
    18:00 +16°C° 0 mm 3 mps 727 mmHg 21%
    19:00 +14°C° 0 mm 3 mps 728 mmHg 23%
    20:00 +14°C° 0 mm 2 mps 728 mmHg 24%
    21:00 +14°C° 0 mm 2 mps 728 mmHg 25%
    22:00 +14°C° 0 mm 2 mps 728 mmHg 26%
    23:00 +13°C° 0 mm 1 mps 727 mmHg 27%

    18 November, Monday

    Time Temperature Precipitation Wind Pressure Humidity
    00:00 +13°C° 0 mm 1 mps 727 mmHg 27%
    01:00 +12°C° 0 mm 1 mps 727 mmHg 27%
    02:00 +12°C° 0 mm 1 mps 727 mmHg 28%
    03:00 +12°C° 0 mm 1 mps 727 mmHg 28%
    04:00 +11°C° 0 mm 1 mps 727 mmHg 28%
    05:00 +11°C° 0 mm 1 mps 727 mmHg 28%
    06:00 +12°C° 0 mm 1 mps 727 mmHg 27%
    07:00 +13°C° 0 mm 1 mps 728 mmHg 25%
    08:00 +14°C° 0 mm 1 mps 728 mmHg 24%
    09:00 +15°C° 0 mm 2 mps 728 mmHg 22%
    10:00 +17°C° 0 mm 2 mps 728 mmHg 20%
    11:00 +18°C° 0 mm 2 mps 728 mmHg 19%
    12:00 +19°C° 0 mm 2 mps 728 mmHg 19%
    13:00 +19°C° 0 mm 2 mps 728 mmHg 19%
    14:00 +20°C° 0 mm 2 mps 727 mmHg 18%
    15:00 +19°C° 0 mm 2 mps 727 mmHg 21%
    16:00 +17°C° 0 mm 2 mps 727 mmHg 23%
    17:00 +16°C° 0 mm 2 mps 727 mmHg 26%
    18:00 +16°C° 0 mm 1 mps 728 mmHg 27%
    19:00 +15°C° 0 mm 1 mps 728 mmHg 28%
    20:00 +14°C° 0 mm 1 mps 728 mmHg 29%
    21:00 +14°C° 0 mm 1 mps 728 mmHg 29%
    22:00 +13°C° 0 mm 1 mps 727 mmHg 30%
    23:00 +13°C° 0 mm 1 mps 727 mmHg 31%

    19 November, Tuesday

    Time Temperature Precipitation Wind Pressure Humidity
    00:00 +13°C° 0 mm 1 mps 727 mmHg 31%
    01:00 +12°C° 0 mm 1 mps 727 mmHg 32%
    02:00 +12°C° 0 mm 1 mps 727 mmHg 32%
    03:00 +11°C° 0 mm 1 mps 727 mmHg 32%
    04:00 +11°C° 0 mm 1 mps 727 mmHg 33%
    05:00 +11°C° 0 mm 1 mps 727 mmHg 33%
    06:00 +12°C° 0 mm 1 mps 727 mmHg 31%
    07:00 +13°C° 0 mm 1 mps 728 mmHg 29%
    08:00 +14°C° 0 mm 1 mps 728 mmHg 27%
    09:00 +16°C° 0 mm 1 mps 728 mmHg 24%
    10:00 +18°C° 0 mm 1 mps 728 mmHg 21%
    11:00 +20°C° 0 mm 1 mps 728 mmHg 18%
    12:00 +20°C° 0 mm 1 mps 728 mmHg 17%
    13:00 +21°C° 0 mm 1 mps 727 mmHg 16%
    14:00 +21°C° 0 mm 1 mps 727 mmHg 15%
    15:00 +20°C° 0 mm 1 mps 727 mmHg 18%
    16:00 +19°C° 0 mm 1 mps 727 mmHg 20%
    17:00 +16°C° 0 mm 1 mps 727 mmHg 22%
    18:00 +16°C° 0 mm 1 mps 727 mmHg 23%
    19:00 +15°C° 0 mm 1 mps 727 mmHg 25%
    20:00 +14°C° 0 mm 1 mps 727 mmHg 26%
    21:00 +14°C° 0 mm 1 mps 727 mmHg 26%
    22:00 +13°C° 0 mm 1 mps 727 mmHg 27%
    23:00 +13°C° 0 mm 1 mps 726 mmHg 28%

    20 November, Wednesday

    Time Temperature Precipitation Wind Pressure Humidity
    00:00 +11°C° 0 mm 0 mps 726 mmHg 28%
    01:00 +11°C° 0 mm 0 mps 726 mmHg 29%
    02:00 +11°C° 0 mm 0 mps 726 mmHg 29%
    03:00 +10°C° 0 mm 0 mps 726 mmHg 30%
    04:00 +10°C° 0 mm 0 mps 726 mmHg 30%
    05:00 +10°C° 0 mm 0 mps 725 mmHg 30%
    06:00 +11°C° 0 mm 0 mps 726 mmHg 29%
    07:00 +12°C° 0 mm 0 mps 726 mmHg 27%
    08:00 +14°C° 0 mm 0 mps 727 mmHg 25%
    09:00 +15°C° 0 mm 0 mps 727 mmHg 23%
    10:00 +17°C° 0 mm 0 mps 727 mmHg 20%
    11:00 +18°C° 0 mm 0 mps 727 mmHg 17%
    12:00 +19°C° 0 mm 0 mps 726 mmHg 16%
    13:00 +21°C° 0 mm 1 mps 726 mmHg 16%
    14:00 +22°C° 0 mm 1 mps 726 mmHg 15%
    15:00 +20°C° 0 mm 1 mps 726 mmHg 20%
    16:00 +19°C° 0 mm 1 mps 725 mmHg 25%
    17:00 +16°C° 0 mm 1 mps 725 mmHg 29%
    18:00 +15°C° 0 mm 1 mps 725 mmHg 33%
    19:00 +15°C° 0 mm 1 mps 725 mmHg 36%
    20:00 +14°C° 0 mm 1 mps 725 mmHg 39%
    21:00 +14°C° 0 mm 1 mps 725 mmHg 42%
    22:00 +13°C° 0 mm 1 mps 725 mmHg 45%
    23:00 +13°C° 0 mm 1 mps 725 mmHg 48%
    Show more